Home > Time Zones > World Clock > Weather > Norway > Moss > Past weeks

Flag for Norway Weather past 2 weeks in Moss, Norway

Now
59 °F

Scattered clouds.


Feels Like: 57 °F
Forecast: 54 / 64 °F
Wind: 13 mph from Northeast

Location: Rygge

Current Time: Jul 31, 2015 at 10:01:58 AM

Latest Report: Jul 31, 2015 at 9:20 AM


Visibility: N/A

Pressure: 29.74 "Hg

Humidity: 72%

Dew point: 50 °F

Location of MossLocation

Historic Weather in Moss — Graph

°F

Moss temperature yesterday

Maximum temperature yesterday: 72 °F (at 3:50 PM)
Minimum temperature yesterday: 52 °F (at 5:20 AM)
Average temperature yesterday: 61 °F

Past Weeks' High & Low Weather Summary

 TemperatureHumidityPressure
High72 °F (Jul 20, 2:20 PM)100% (Jul 25, 3:50 AM)30.07 "Hg (Jul 25, 3:50 AM)
Low48 °F (Jul 17, 4:50 AM)35% (Jul 23, 6:50 PM)29.39 "Hg (Jul 26, 10:20 AM)
Average59 °F76%29.65 "Hg
* Reported Jul 16 8:20 AM — Jul 31 8:50 AM, Moss, Weather by CustomWeather, © 2015

Note: Actual official high and low records may vary slightly from our data, if they occured in-between our weather recording intervals... More about our weather records

Advertising

Moss weather history for previous 24 hours

 ConditionsComfort  
Time TempWeatherWind HumidityBarometerVisibility
8:50 AM
Fri, Jul 31
59 °FPassing clouds.10 mph72%29.71 "HgN/A
8:20 AM57 °FScattered clouds.9 mph82%29.71 "HgN/A
7:50 AM57 °FSunny.10 mph82%29.68 "Hg10 mi
7:20 AM57 °FScattered clouds.9 mph82%29.68 "HgN/A
6:50 AM55 °FSunny.10 mph88%29.68 "Hg10 mi
6:20 AM55 °FSunny.10 mph88%29.65 "Hg10 mi
5:50 AM55 °FMostly cloudy.9 mph88%29.65 "HgN/A
5:20 AM55 °FOvercast.9 mph94%29.65 "HgN/A
4:50 AM57 °FMostly cloudy.8 mph88%29.65 "HgN/A
4:20 AM57 °FOvercast.6 mph88%29.65 "HgN/A
3:50 AM55 °FFog.3 mph100%29.62 "Hg2 mi
3:20 AM55 °FPassing clouds.3 mph100%29.62 "HgN/A
2:50 AM57 °FPassing clouds.2 mph94%29.62 "HgN/A
2:20 AM57 °FMostly cloudy.No wind94%29.62 "HgN/A
1:50 AM57 °FMostly cloudy.No wind94%29.62 "HgN/A
1:20 AM57 °FMostly cloudy.1 mph94%29.62 "HgN/A
12:50 AM57 °FOvercast.1 mph94%29.62 "HgN/A
12:20 AM57 °FOvercast.2 mph94%29.59 "HgN/A
11:50 PM
Thu, Jul 30
59 °FOvercast.2 mph88%29.59 "HgN/A
11:20 PM59 °FClear.5 mph88%29.59 "Hg10 mi
10:50 PM59 °FClear.5 mph94%29.59 "Hg10 mi
10:20 PM61 °FSunny.5 mph83%29.59 "Hg10 mi
9:50 PM61 °FSunny.6 mph83%29.59 "Hg10 mi
9:20 PM61 °FPassing clouds.6 mph83%29.59 "HgN/A
8:50 PM63 °FSunny.5 mph77%29.59 "Hg10 mi
8:20 PM64 °FSunny.7 mph68%29.56 "Hg10 mi
7:50 PM64 °FScattered clouds.5 mph64%29.56 "HgN/A
7:20 PM66 °FThundershowers. Partly sunny.5 mph68%29.56 "HgN/A
6:50 PM63 °FThundershowers. Scattered clouds.9 mph73%29.56 "HgN/A
6:20 PM64 °FThundershowers. Scattered clouds.10 mph73%29.56 "HgN/A
5:50 PM64 °FScattered showers. Scattered clouds.12 mph78%29.56 "HgN/A
5:20 PM72 °FScattered showers. Passing clouds.8 mph53%29.53 "HgN/A
4:50 PM72 °FPassing clouds.9 mph53%29.53 "HgN/A
4:20 PM72 °FPassing clouds.3 mph50%29.53 "HgN/A
3:50 PM72 °FPassing clouds.7 mph53%29.53 "HgN/A
3:20 PM70 °FPassing clouds.8 mph53%29.53 "HgN/A
2:50 PM68 °FPassing clouds.7 mph60%29.53 "HgN/A
2:20 PM68 °FPassing clouds.9 mph60%29.53 "HgN/A
1:50 PM66 °FPartly sunny.6 mph68%29.53 "HgN/A
1:20 PM66 °FScattered showers. Scattered clouds.7 mph64%29.53 "HgN/A
12:50 PM66 °FScattered clouds.8 mph68%29.53 "HgN/A
12:20 PM66 °FPassing clouds.9 mph64%29.53 "HgN/A
11:50 AM64 °FBroken clouds.10 mph73%29.53 "HgN/A
11:20 AM63 °FPartly sunny.10 mph77%29.53 "HgN/A
10:50 AM63 °FSunny.9 mph77%29.53 "Hg10 mi
10:20 AM61 °FSunny.9 mph83%29.50 "Hg10 mi
Weather by CustomWeather, © 2015

See weather overviewHow to use our weather pages